Home   Weather   Norfolk   Past weeks

Flag for USA Past Weather in Norfolk, Virginia, USA — Yesterday and Last 2 Weeks

Now
41 °F

Passing clouds.


Feels Like: 38 °F
Forecast: 39 / 52 °F
Wind: 5 mph from North

Location: Norfolk Naval Air Station

Current Time: Jan 19, 2017 at 6:12:01 am

Latest Report: Jan 19, 2017 at 4:59 am


Visibility: 10 mi

Pressure: 30.07 "Hg

Humidity: 82%

Dew Point: 36 °F

Location of NorfolkLocation

Past Weather in Norfolk — Graph

°F

Norfolk Temperature Yesterday

Maximum temperature yesterday: 61 °F (at 6:59 am)
Minimum temperature yesterday: 43 °F (at 10:59 pm)
Average temperature yesterday: 53 °F

High & Low Weather Summary for the Past Weeks

 TemperatureHumidityPressure
High71 °F (Jan 12, 12:59 pm)97% (Jan 11, 12:59 am)30.84 "Hg (Jan 11, 12:59 am)
Low17 °F (Jan 8, 7:59 am)22% (Jan 10, 2:59 pm)29.59 "Hg (Jan 4, 4:59 am)
Average42 °F72%30.28 "Hg
* Reported Jan 4 4:59 am — Jan 19 4:59 am, Norfolk, Weather by CustomWeather, © 2017

Note: Actual official high and low records may vary slightly from our data, if they occured in-between our weather recording intervals... More about our weather records

Advertising

Norfolk Weather History for the Previous 24 Hours

Scroll right to see more
 ConditionsComfort  
Time TempWeatherWind HumidityBarometerVisibility
4:59 am
Thu, Jan 19
41 °FPassing clouds.5 mph82%30.07 "Hg10 mi
3:59 am41 °FPassing clouds.6 mph86%30.08 "Hg10 mi
2:59 am42 °FPassing clouds.3 mph85%30.07 "Hg10 mi
1:59 am42 °FPassing clouds.5 mph85%30.06 "Hg10 mi
12:59 am42 °FPassing clouds.3 mph89%30.07 "Hg9 mi
11:59 pm
Wed, Jan 18
43 °FClear.3 mph86%30.06 "Hg10 mi
10:59 pm43 °FClear.3 mph89%30.05 "Hg10 mi
9:59 pm44 °FClear.3 mph85%30.06 "Hg10 mi
8:59 pm44 °FClear.No wind89%30.05 "Hg10 mi
7:59 pm44 °FClear.No wind89%30.05 "Hg7 mi
6:59 pm46 °FClear.No wind89%30.04 "Hg8 mi
5:59 pm47 °FPassing clouds.5 mph86%30.02 "Hg10 mi
4:59 pm50 °FScattered clouds.6 mph80%29.99 "Hg9 mi
3:59 pm52 °FScattered clouds.9 mph80%29.98 "Hg10 mi
2:59 pm52 °FScattered clouds.8 mph80%29.96 "Hg10 mi
1:59 pm51 °FPartly sunny.9 mph83%29.95 "Hg9 mi
1:23 pm50 °FOvercast.14 mph83%29.95 "Hg9 mi
12:59 pm50 °FThunderstorms. Overcast.12 mph83%29.94 "Hg8 mi
11:59 am53 °FMore clouds than sun.12 mph80%29.93 "Hg7 mi
11:13 am54 °FFog.6 mph86%29.94 "Hg5 mi
10:59 am54 °FFog.8 mph90%29.93 "Hg4 mi
10:06 am55 °FFog.9 mph87%29.94 "Hg4 mi
9:59 am55 °FFog.8 mph87%29.93 "Hg4 mi
8:59 am59 °FBroken clouds.5 mph87%29.90 "Hg7 mi
7:59 am58 °FBroken clouds.3 mph90%29.88 "Hg7 mi
6:59 am61 °FPassing clouds.10 mph81%29.89 "Hg10 mi
Weather by CustomWeather, © 2017

See weather overviewHow to use our weather pages